Moose Lake, MN

2:38 PM CDT on April 29, 2017 (GMT -0500)
Moose Lake-Carlton County

Weather History for KMZH - August, 2014

Change the Weather History Date:

Sunday, August 24, 2014

  Actual Average Record
Temperature  
Mean Temperature 70 °F -  
Max Temperature 80 °F 75 °F 95 °F (2003)
Min Temperature 60 °F 52 °F 33 °F (1977)
Cooling Degree Days 5    
Growing Degree Days 20 (Base 50)    
Moisture  
Dew Point 66 °F    
Average Humidity 90    
Maximum Humidity 100    
Minimum Humidity 74    
Precipitation  
Precipitation 0.02 in - - ()
Sea Level Pressure  
Sea Level Pressure 29.85 in    
Wind  
Wind Speed 3 mph (ESE)    
Max Wind Speed 13 mph    
Max Gust Speed 34 mph    
Visibility 6 miles    
Events Rain , Thunderstorm    
Averages and records for this station are not official NWS values.
T = Trace of Precipitation, MM = Missing Value Source: NWS Daily Summary

Daily Weather History Graph

Daily Weather History Graph

Search for Another Location

Airport or City:

Trip Planner

Search our weather history database for the weather conditions in past years. The results will help you decide how hot, cold, wet, or windy it might be!

Date:

Astronomy

Aug. 24, 2014 Rise Set
Actual Time 6:21 AM CDT 8:04 PM CDT
Civil Twilight 5:49 AM CDT 8:36 PM CDT
Nautical Twilight 5:10 AM CDT 9:15 PM CDT
Astronomical Twilight 4:27 AM CDT 9:57 PM CDT
Moon 5:32 AM CDT (8/24) 7:21 PM CDT (8/24)
Length of Visible Light 14h 47m
Length of Day
13h 43m
Waning Crescent, 1% of the Moon is Illuminated
Aug 24
Waning Crescent
Aug 25
New
Sep 2
First Quarter
Sep 8
Full
Sep 15
Last Quarter

Hourly Weather History & Observations

Time (CDT) Temp. Heat Index Dew Point Humidity Pressure Visibility Wind Dir Wind Speed Gust Speed Precip Events Conditions
12:14 AM 60.8 °F - 60.8 °F 100% 29.95 in 3.0 mi ENE 4.6 mph - N/A   Overcast
12:34 AM 60.8 °F - 60.8 °F 100% 29.95 in 3.0 mi NE 3.5 mph - N/A   Overcast
12:54 AM 60.8 °F - 60.8 °F 100% 29.94 in 2.5 mi NE 4.6 mph - N/A   Overcast
1:14 AM 60.8 °F - 60.8 °F 100% 29.95 in 2.5 mi ENE 3.5 mph - N/A   Overcast
1:34 AM 60.8 °F - 60.8 °F 100% 29.93 in 3.0 mi Calm Calm - N/A   Overcast
1:54 AM 60.8 °F - 60.8 °F 100% 29.93 in 4.0 mi Calm Calm - N/A   Overcast
2:14 AM 60.8 °F - 60.8 °F 100% 29.92 in 5.0 mi Calm Calm - N/A   Overcast
2:34 AM 60.8 °F - 60.8 °F 100% 29.91 in 5.0 mi NE 3.5 mph - N/A   Overcast
2:54 AM 60.8 °F - 60.8 °F 100% 29.90 in 5.0 mi ENE 4.6 mph - N/A   Overcast
3:14 AM 62.6 °F - 60.8 °F 94% 29.89 in 4.0 mi Calm Calm - N/A Rain Light Rain
3:34 AM 62.6 °F - 60.8 °F 94% 29.89 in 4.0 mi Calm Calm - N/A   Overcast
3:54 AM 62.6 °F - 62.6 °F 100% 29.88 in 4.0 mi ENE 3.5 mph - N/A   Overcast
4:14 AM 62.6 °F - 60.8 °F 94% 29.88 in 4.0 mi ENE 3.5 mph - N/A   Overcast
4:34 AM 62.6 °F - 60.8 °F 94% 29.87 in 3.0 mi Calm Calm - N/A   Overcast
4:54 AM 62.6 °F - 62.6 °F 100% 29.86 in 3.0 mi ENE 3.5 mph - N/A   Overcast
5:14 AM 64.4 °F - 62.6 °F 94% 29.86 in 3.0 mi Calm Calm - N/A   Overcast
5:34 AM 64.4 °F - 62.6 °F 94% 29.86 in 4.0 mi ENE 3.5 mph - N/A   Overcast
5:54 AM 64.4 °F - 62.6 °F 94% 29.87 in 4.0 mi Calm Calm - N/A   Overcast
6:14 AM 64.4 °F - 62.6 °F 94% 29.88 in 5.0 mi Calm Calm - N/A   Overcast
6:34 AM 64.4 °F - 64.4 °F 100% 29.89 in 4.0 mi Calm Calm - N/A   Overcast
6:54 AM 64.4 °F - 62.6 °F 94% 29.89 in 3.0 mi NNE 5.8 mph - N/A   Overcast
7:14 AM 62.6 °F - 62.6 °F 100% 29.89 in 3.0 mi NE 8.1 mph - N/A Thunderstorm Overcast
7:34 AM 62.6 °F - 62.6 °F 100% 29.89 in 3.0 mi NE 3.5 mph - N/A Rain , Thunderstorm Light Thunderstorms and Rain
7:54 AM 64.4 °F - 62.6 °F 94% 29.89 in 3.0 mi Calm Calm - N/A Rain , Thunderstorm Light Thunderstorms and Rain
8:14 AM 64.4 °F - 62.6 °F 94% 29.88 in 3.0 mi Calm Calm - N/A Thunderstorm Overcast
8:34 AM 64.4 °F - 62.6 °F 94% 29.87 in 2.5 mi Calm Calm - N/A   Overcast
8:54 AM 64.4 °F - 62.6 °F 94% 29.86 in 2.5 mi NE 4.6 mph - N/A   Overcast
9:14 AM 64.4 °F - 62.6 °F 94% 29.84 in 2.5 mi ENE 5.8 mph - N/A   Overcast
9:34 AM 66.2 °F - 64.4 °F 94% 29.82 in 4.0 mi ENE 3.5 mph - N/A   Overcast
9:54 AM 68.0 °F - 66.2 °F 94% 29.81 in 5.0 mi East 8.1 mph - N/A   Overcast
10:14 AM 69.8 °F - 66.2 °F 88% 29.83 in 5.0 mi East 3.5 mph - N/A   Overcast
10:34 AM 69.8 °F - 68.0 °F 94% 29.84 in 5.0 mi SE 4.6 mph - N/A   Overcast
10:54 AM 71.6 °F - 68.0 °F 88% 29.84 in 5.0 mi ESE 4.6 mph - N/A   Overcast
11:14 AM 71.6 °F - 68.0 °F 88% 29.83 in 5.0 mi SE 5.8 mph - N/A   Light Drizzle
11:34 AM 71.6 °F - 68.0 °F 88% 29.84 in 7.0 mi Calm Calm - N/A   Overcast
11:54 AM 71.6 °F - 68.0 °F 88% 29.84 in 7.0 mi SSE 5.8 mph - N/A   Overcast
12:14 PM 71.6 °F - 68.0 °F 88% 29.84 in 7.0 mi South 4.6 mph - N/A   Overcast
12:34 PM 73.4 °F - 68.0 °F 83% 29.85 in 7.0 mi SSE 3.5 mph - N/A   Overcast
12:54 PM 73.4 °F - 68.0 °F 83% 29.85 in 7.0 mi Calm Calm - N/A   Overcast
1:14 PM 73.4 °F - 69.8 °F 88% 29.85 in 7.0 mi Calm Calm - N/A   Overcast
1:34 PM 73.4 °F - 69.8 °F 88% 29.84 in 7.0 mi SSE 4.6 mph - N/A   Overcast
1:54 PM 73.4 °F - 69.8 °F 88% 29.84 in 10.0 mi SSE 5.8 mph - N/A   Overcast
2:14 PM 75.2 °F - 69.8 °F 83% 29.84 in 10.0 mi SSE 4.6 mph - N/A   Overcast
2:34 PM 77.0 °F - 69.8 °F 78% 29.83 in 10.0 mi SSE 4.6 mph - N/A   Overcast
2:54 PM 77.0 °F - 69.8 °F 78% 29.83 in 10.0 mi SSE 3.5 mph - N/A   Overcast
3:14 PM 77.0 °F - 69.8 °F 78% 29.82 in 10.0 mi SSE 6.9 mph - N/A   Overcast
3:34 PM 77.0 °F - 69.8 °F 78% 29.82 in 10.0 mi SSE 4.6 mph - N/A   Overcast
3:54 PM 77.0 °F - 69.8 °F 78% 29.81 in 10.0 mi SSE 6.9 mph - N/A   Overcast
4:14 PM 77.0 °F - 69.8 °F 78% 29.82 in 10.0 mi Calm Calm - N/A   Overcast
4:34 PM 77.0 °F - 69.8 °F 78% 29.82 in 10.0 mi SE 3.5 mph - N/A   Overcast
4:54 PM 77.0 °F - 69.8 °F 78% 29.81 in 10.0 mi SE 4.6 mph - N/A   Overcast
5:14 PM 78.8 °F - 71.6 °F 78% 29.80 in 10.0 mi SE 3.5 mph - N/A   Mostly Cloudy
5:34 PM 80.6 °F 84.6 °F 71.6 °F 74% 29.78 in 10.0 mi ESE 5.8 mph - N/A   Scattered Clouds
5:54 PM 78.8 °F - 71.6 °F 78% 29.80 in 10.0 mi SSE 4.6 mph - N/A   Scattered Clouds
6:14 PM 77.0 °F - 71.6 °F 83% 29.81 in 10.0 mi Calm Calm - N/A   Mostly Cloudy
6:34 PM 77.0 °F - 71.6 °F 83% 29.81 in 10.0 mi Calm Calm - N/A   Mostly Cloudy
6:54 PM 77.0 °F - 69.8 °F 78% 29.83 in 10.0 mi Calm Calm - N/A   Overcast
7:14 PM 75.2 °F - 69.8 °F 83% 29.81 in 10.0 mi Calm Calm - N/A   Overcast
7:34 PM 73.4 °F - 69.8 °F 88% 29.81 in 10.0 mi SE 3.5 mph - N/A Thunderstorm Mostly Cloudy
7:54 PM 73.4 °F - 69.8 °F 88% 29.80 in 7.0 mi Calm Calm - N/A Rain Light Rain
8:14 PM 73.4 °F - 69.8 °F 88% 29.80 in 7.0 mi Calm Calm - N/A Thunderstorm Thunderstorm
8:34 PM 73.4 °F - 69.8 °F 88% 29.79 in 4.0 mi Calm Calm - N/A Rain , Thunderstorm Light Thunderstorms and Rain
8:54 PM 68.0 °F - 62.6 °F 83% 29.84 in 1.5 mi SW 12.7 mph 34.5 mph N/A Rain , Thunderstorm Heavy Thunderstorms and Rain
9:14 PM 66.2 °F - 64.4 °F 94% 29.81 in 10.0 mi SSE 3.5 mph - N/A Rain , Thunderstorm Light Thunderstorms and Rain
9:34 PM 66.2 °F - 64.4 °F 94% 29.81 in 10.0 mi Calm Calm - 0.02 in Thunderstorm Thunderstorm
9:54 PM 64.4 °F - 64.4 °F 100% 29.79 in 10.0 mi SSW 5.8 mph - 0.02 in Thunderstorm Scattered Clouds
10:14 PM 64.4 °F - 62.6 °F 94% 29.79 in 7.0 mi Calm Calm - N/A Thunderstorm Clear
10:34 PM 64.4 °F - 62.6 °F 94% 29.81 in 10.0 mi Calm Calm - N/A   Clear
10:54 PM 64.4 °F - 62.6 °F 94% 29.81 in 10.0 mi WNW 3.5 mph - N/A   Clear
11:14 PM 64.4 °F - 62.6 °F 94% 29.81 in 10.0 mi ESE 3.5 mph - N/A   Scattered Clouds
11:34 PM 64.4 °F - 62.6 °F 94% 29.83 in 10.0 mi Calm Calm - N/A   Clear
11:54 PM 64.4 °F - 62.6 °F 94% 29.84 in 10.0 mi Calm Calm - N/A   Mostly Cloudy